User: anonymous   Login
Location: Unspecified
(0.0000°N, 0.0000°E)
Time: 07:04:34
(UTC+00:00)
Language:

CUTE 1.7 + AOD 2 - Orbit

View from above orbital plane
View from above orbital plane
View from above satellite
View from above satellite

Ground track
Ground track

The orbit data is extracted from the following two-line orbital elements,

1 32785U 08021C   22140.41791736  .00003349  00000-0  35692-3 0  9990
2 32785  97.6559 112.1603 0011826 334.6029  25.4606 14.89486533762310
Epoch (UTC): 20 May 2022 10:01:48
Eccentricity: 0.0011826
inclination: 97.6559°
perigee height: 591 km
apogee height: 608 km
right ascension of ascending node: 112.1603°
argument of perigee: 334.6029°
revolutions per day: 14.89486533
mean anomaly at epoch: 25.4606°
orbit number at epoch: 76231

The dashed part of the orbit path shows where the satellite is in the earth's shadow,  

DLR